AVA0617 SKBQ-SKAR

Flight info

Callsign AVA0617
Flight time N/A
Altitude 37000
Route VOVLU2D VOVLU UW3 MGN/N0438F390 UW3 MRN/N0433F380 UW26 RNG DCT MATRO MATRO1H
Aircraft A20N/M-SDE2E3FGHIRWXY/LB1

Departure

Time 2026-05-06 23:11
Airport Ernesto Cortissoz International Airport (SKBQ)

Arrival

Time N/A
Airport El Eden Airport (SKAR)
Time Latitude Longitude Altitude Speed Heading
2026-05-06 22:40 10.88662 -74.77739 96 ft 0 kts 130°
2026-05-06 23:05 10.88677 -74.77757 98 ft 8 kts 129°
2026-05-06 23:05 10.88698 -74.77777 97 ft 2 kts 190°
2026-05-06 23:05 10.88710 -74.77773 98 ft 2 kts 213°
2026-05-06 23:06 10.88719 -74.77767 97 ft 1 kts 214°
2026-05-06 23:07 10.88675 -74.77801 98 ft 9 kts 226°
2026-05-06 23:07 10.88581 -74.77891 97 ft 13 kts 257°
2026-05-06 23:07 10.88534 -74.77992 97 ft 20 kts 222°
2026-05-06 23:07 10.88430 -74.78109 98 ft 25 kts 252°
2026-05-06 23:08 10.88441 -74.78276 101 ft 23 kts 255°
2026-05-06 23:08 10.88335 -74.78361 100 ft 21 kts 225°
2026-05-06 23:08 10.88209 -74.78478 102 ft 28 kts 220°
2026-05-06 23:08 10.88049 -74.78620 106 ft 33 kts 221°
2026-05-06 23:09 10.87926 -74.78760 109 ft 14 kts 267°
2026-05-06 23:09 10.87910 -74.78836 110 ft 0 kts 259°
2026-05-06 23:10 10.87909 -74.78844 109 ft 4 kts 259°
2026-05-06 23:10 10.87908 -74.78850 110 ft 2 kts 259°
2026-05-06 23:10 10.87904 -74.78912 111 ft 15 kts 277°
2026-05-06 23:10 10.87964 -74.78937 109 ft 2 kts 31°
2026-05-06 23:11 10.88012 -74.78902 108 ft 39 kts 35°
2026-05-06 23:11 10.88448 -74.78542 103 ft 119 kts 39°
2026-05-06 23:11 10.89235 -74.77886 401 ft 149 kts 40°
2026-05-06 23:11 10.90011 -74.77208 1096 ft 158 kts 39°
2026-05-06 23:12 10.90910 -74.76435 1687 ft 175 kts 38°
2026-05-06 23:12 10.91871 -74.75610 2388 ft 188 kts 39°
2026-05-06 23:12 10.92898 -74.74729 2942 ft 198 kts 40°
2026-05-06 23:12 10.93970 -74.73807 3276 ft 213 kts 41°
2026-05-06 23:13 10.95244 -74.72965 3684 ft 224 kts 14°
2026-05-06 23:13 10.96743 -74.73089 4230 ft 218 kts 332°
2026-05-06 23:13 10.97851 -74.74168 4340 ft 231 kts 299°
2026-05-06 23:13 10.98557 -74.75588 5045 ft 213 kts 294°
2026-05-06 23:14 10.99143 -74.76895 5905 ft 200 kts 292°
2026-05-06 23:14 10.99723 -74.78259 5949 ft 224 kts 294°
2026-05-06 23:14 11.00602 -74.79559 6379 ft 221 kts 317°
2026-05-06 23:14 11.01736 -74.80647 6684 ft 229 kts 309°
2026-05-06 23:15 11.02646 -74.81959 6882 ft 226 kts 303°
2026-05-06 23:15 11.03614 -74.83222 6972 ft 226 kts 307°
2026-05-06 23:15 11.04281 -74.84039 7058 ft 226 kts 308°